This demonstration page uses our WeatherBlox Daily Observations layout. Learn more.

Left ArrowRight Arrow

Hourly Observations for July 30, 2022

Temp ( °F °C ) Dew Point ( °F °C ) Humidity (%) Winds ( mph kmh ) Pressure ( in mb ) Visibility ( mi km ) Precip ( " mm )
12:52 am 00:52 Mostly Clear 68 20 61 16.1 78 78 SSE 7 11 30.14 1021 10 16 0.00 0.00
1:52 am 01:52 Partly Cloudy 67 19.4 60 15.6 79 79 SSE 7 11 30.14 1021 10 16 0.00 0.00
2:52 am 02:52 Partly Cloudy 67 19.4 61 16.1 81 81 SE 5 7 30.14 1021 10 16 0.00 0.00
3:52 am 03:52 Mostly Clear 65 18.3 60 15.6 84 84 SE 5 7 30.14 1021 10 16 0.00 0.00
4:52 am 04:52 Mostly Clear 64 17.8 60 15.6 87 87 SSE 6 9 30.14 1021 10 16 0.00 0.00
5:52 am 05:52 Clear 63 17.2 59 15 87 87 SSE 5 7 30.15 1021 10 16 0.00 0.00
6:52 am 06:52 Partly Cloudy 64 17.8 60 15.6 87 87 SSE 6 9 30.16 1021 10 16 0.00 0.00
7:52 am 07:52 Mostly Cloudy 66 18.9 61 16.1 84 84 SSE 5 7 30.16 1021 10 16 0.00 0.00
8:52 am 08:52 Mostly Cloudy 69 20.6 61 16.1 76 76 SSE 5 7 30.16 1021 10 16 0.00 0.00
9:52 am 09:52 Mostly Cloudy 74 23.3 62 16.7 67 67 SSE 5 7 30.15 1021 10 16 0.00 0.00
10:52 am 10:52 Mostly Cloudy 79 26.1 56 13.3 45 45 S 10 17 30.14 1021 10 16 0.00 0.00
11:52 am 11:52 Mostly Cloudy 80 26.7 55 12.8 42 42 S 15 24 30.13 1020 10 16 0.00 0.00
12:52 pm 12:52 Partly Cloudy 81 27.2 57 13.9 44 44 SSE 12 19 30.12 1020 10 16 0.00 0.00
1:52 pm 13:52 Partly Cloudy 83 28.3 56 13.3 40 40 S 15 24 30.11 1020 10 16 0.00 0.00
2:52 pm 14:52 Partly Cloudy 81 27.2 57 13.9 44 44 SE 8 13 30.08 1019 10 16 0.00 0.00
3:52 pm 15:52 Mostly Sunny 83 28.3 58 14.4 43 43 S 13 20 30.06 1018 10 16 0.00 0.00
4:52 pm 16:52 Mostly Sunny 83 28.3 56 13.3 40 40 SSE 14 22 30.04 1017 10 16 0.00 0.00
5:52 pm 17:52 Mostly Sunny 83 28.3 57 13.9 41 41 S 12 19 30.03 1017 10 16 0.00 0.00
6:52 pm 18:52 Mostly Sunny 82 27.8 57 13.9 42 42 SSE 14 22 30.02 1017 10 16 0.00 0.00
7:52 pm 19:52 Mostly Sunny 80 26.7 58 14.4 47 47 S 9 15 30.02 1017 10 16 0.00 0.00
8:52 pm 20:52 Clear 78 25.6 58 14.4 50 50 S 10 17 30.02 1017 10 16 0.00 0.00
9:52 pm 21:52 Clear 73 22.8 60 15.6 64 64 ESE 5 7 30.04 1017 10 16 0.00 0.00
10:52 pm 22:52 Clear 72 22.2 61 16.1 68 68 SE 6 9 30.04 1017 10 16 0.00 0.00
11:52 pm 23:52 Clear 71 21.7 61 16.1 71 71 SSE 7 11 30.04 1017 10 16 0.00 0.00

Powered by AerisWeather